PEGASUS DEB, 40242

Orbit data source: Space-Track

PEGASUS DEB, 40242 is space debris in LEO originally from a launch on Thu, 19 May 1994 UTC launched from the Air Force Western Test Range (AFWTR). Debris objects in space refer to the collection of defunct objects orbiting the Earth. Examples of debris include non-operational satellites, rocket bodies, and fragments generated from explosions, collisions, or faulty payload assembly.

Loading next visibility...
Identifier
40242, 1994-029AGJ
Orbit
LEO
Country
Flag of USUS
Related business
Manufacturer
Unknown
Mission
Spacecraft
Bus & Motor
Unknown
Mass
Unknown
Launch date (UTC)
1994-05-19 (32 years ago)
Launch vehicle
Unknown
Launch site
Air Force Western Test Range (AFWTR)
Object type
Payload
Rocket body
Debris
Shape & HBR
Unknown shape, 0.1 m
Radar Cross Section
Small (<0.1 m²)

Expand to show TLE details & history
Last TLE update: 3 days ago

TLE from 3 days ago
0 PEGASUS DEB
1 40242U 94029AGJ 25339.68267382  .00012206  00000-0  25444-2 0  9992
2 40242  81.8768 127.2770 0326110  82.5776 281.2335 14.31464866574863
Epoch: 2025-12-05T16:23Z
TLE epoch observation values (Epoch: 2025-12-05T16:23:03.018Z)
Latitude
0.00005°
Longitude
166.79318°
Altitude
751.66 km
Speed
7.499 km/s
True Right ascension
08h 29m 06s
True Declination
0° 00' 00"
Sunlit
Object was in full shadow at epoch
Visualization orbit readout
Latitude
Unknown
Longitude
Unknown
Altitude
Unknown
Speed
Unknown
Apparent Right ascension
Unknown
Apparent Declination
Unknown
Sunlit
N/A
Visualization observer readout
Local Sidereal Time
17:23:02
Azimuth
Unknown
Elevation
Unknown
Doppler factor
Unknown
Orbital elements
Apogee altitude
1,017.513 km
Perigee altitude
550.387 km
Semi-major axis
7,162.087 km
Eccentricity
0.03261
Inclination
81.8768°
RAAN
127.277°
Arg. of periapsis
82.5776°
True anomaly
277.54138°
Mean anomaly
281.2335°
Eccentric anomaly
279.39006°
Mean motion
3.58083 °/min
Orbital period
100.54 mins
BSTAR
0.0025444
Loading maneuver chart data...
Computing Atmospheric mass density...

Documentation

Showing up to 5 results
|